If you wish to contribute or participate in the discussions about articles you are invited to join SKYbrary as a registered user

 Actions

Ahmedabad International Airport

From SKYbrary Wiki

VAAH
Airport
ICAO: VAAH
Summary
Name Ahmedabad International Airport
Region Asia and Pacific
Territory India IN.gif
Location Ahmedabad, Gujarat
Serving
Coordinates 23° 4' 28.50" N, 72° 37' 25.15" E
Runways
Designator Length Width Surface ROPS
5/23 3489 m11,446.85 ft
46 m150.919 ft
PEM yes/yes


METAR
Observation VAAH 180830Z 07007KT 6000 NSC 25/05 Q1017 NOSIG
Station Ahmadabad
Date/Time 18 December 2018 08:30:00
Wind direction 70°
Wind speed 07 kts
Lowest cloud amount nil significant cloud
Temperature 25°C
Dew point 5°C
Humidity 27%
QNH 1017 hPa
Weather condition n/a

Sardar Vallabhbhai Patel International Airport

ICAO: VAAH IATA: AMD

Description

Sardar Vallabhbhai Patel International Airport is located in the State of Gujarat 8 km4.32 nm
8,000 m
26,246.719 ft
from the Ahmedabad railway station and services the cities of Ahmedabad and Gandhinagar.

Climatology

Hot, semi-arid/Steppe climate (Köppen climate classification BSh) - hot, sometimes extremely hot summers and mild to warm winters, with low annual precipitation.

Maps

Terrain

Loading map...

Airport Layout

Loading map...


Accidents & Serious Incidents at or in vicinity of VAAH

None on SKYbrary